Weather Roundup
Issued by NWS

Home | Current Version | Previous Version | Graphics & Text | Print | Product List | Glossary Off
Versions: 1 2 3 4 5 6 7 8 9 10 11 12 13 14 15 16 17 18 19 20 21 22 23 24 25 26 27 28 29 30 31 32 33 34 35 36 37 38 39 40 41 42 43 44 45 46 47 48 49 50

000
NZUS93 KARX 222310
HRRWXR

CURRENT HOURLY OBSERVATIONS ACROSS
MUCH OF THE UPPER MISSISSIPPI VALLEY
NATIONAL WEATHER SERVICE LA CROSSE WI
600 PM CDT WED OCT 22 2014


...SOUTHEAST MINNESOTA...


CITY           SKY/WX    TMP DP  RH WIND       PRES   REMARKS
ROCHESTER      MOCLDY    56  39  53 S15G24    30.12F
ROCHESTER/MAYO CLOUDY    56  36  46 SE13      30.11S
WINONA         PTCLDY    55  37  50 SE8       30.14F
AUSTIN         PTCLDY    55  41  58 S9        30.10S
ALBERT LEA     MOCLDY    57  43  58 SE17G24   30.08S
DODGE CENTER   MOCLDY    55  43  62 SE13      30.10S
PRESTON        CLEAR     54  38  55 S13       30.14S
OWATONNA       MOCLDY    57  39  51 SE14G20   30.06F
FARIBAULT      MOCLDY    57  43  58 SE18G25   30.06S
$$

...ELSEWHERE IN MINNESOTA...


CITY           SKY/WX    TMP DP  RH WIND       PRES   REMARKS
MINNEAPOLIS    CLOUDY    58  41  53 SE13      30.04F
INTNL FALLS    PTCLDY    58  42  55 S15G23    29.92R
DULUTH         MOCLDY    51  39  63 SE9       30.04S
RED WING       NOT AVBL
REDWOOD FALLS  CLOUDY    65  46  50 SE20      29.95R
MANKATO        CLOUDY    61  39  44 SE21G28   30.02F
WORTHINGTON    CLOUDY    66  48  52 S12G17    29.96S
FAIRMONT       CLOUDY    61  43  51 SE22G28   30.01F
$$

...SOUTHWEST WISCONSIN...


CITY           SKY/WX    TMP DP  RH WIND       PRES   REMARKS
LA CROSSE      MOCLDY    57  37  47 SE9       30.16F
PRAIRIE DU CHI CLEAR     55  37  50 E6        30.18S
BOSCOBEL       CLEAR     58  37  45 CALM      30.20F
LONE ROCK      CLEAR     58  37  45 SE7       30.21F
PLATTEVILLE    CLEAR     54  37  52 S5        30.22S
FORT MC COY    CLEAR     54  33  44 SE5       30.19F
CAMP DOUGLAS   PTCLDY    54  37  54 SE6       30.20F
VIROQUA        FAIR      53  35  50 SE7       30.18F
WIS DELLS      CLEAR     52  36  54 SE5       30.22S
$$

...ELSEWHERE IN WISCONSIN...


CITY           SKY/WX    TMP DP  RH WIND       PRES   REMARKS
MILWAUKEE      PTCLDY    46  38  73 SE9       30.29S
MADISON        PTCLDY    55  35  47 S7        30.23F
GREEN BAY      CLEAR     47  40  76 E8        30.26F
EAU CLAIRE     PTCLDY    56  33  42 SE12      30.13F
BLACK RVR FLS  FAIR      56  34  43 SE3       30.17F
MEDFORD        CLEAR     49  32  52 SE7       30.18F
WAUSAU         CLEAR     50  34  54 SE9       30.20F
WIS RAPIDS     CLEAR     53  35  50 SE3       30.23F
MARSHFIELD     CLEAR     52  34  50 SE8       30.19F
RICE LAKE      PTCLDY    55  32  42 SE12      30.12F
$$

...NORTHEAST IOWA...


CITY           SKY/WX    TMP DP  RH WIND       PRES   REMARKS
DECORAH        CLEAR     55  37  50 SE9G15    30.15F
MASON CITY     MOCLDY    58  42  55 SE13      30.11S
CHARLES CITY   CLOUDY    57  39  51 SE13G22   30.13F
OELWEIN        PTCLDY    55  39  54 SE12      30.16F
$$

...ELSEWHERE IN IOWA...


CITY           SKY/WX    TMP DP  RH WIND       PRES   REMARKS
DES MOINES     MOCLDY    64  47  53 S12       30.11R
IOWA CITY      CLEAR     56  41  57 SE9       30.19F
FORT DODGE     MOCLDY    63  46  55 S12       30.07S
$$

...NORTHERN ILLINOIS...


CITY           SKY/WX    TMP DP  RH WIND       PRES   REMARKS
CHICAGO-OHARE  PTCLDY    48  36  63 E8        30.28S
CHICAGO-MIDWAY PTCLDY    50  36  58 E8        30.29S
MOLINE         CLEAR     55  37  50 SE8       30.20F
ROCKFORD       CLEAR     53  35  50 S7        30.25F
PEORIA         CLEAR     58  36  43 SE5       30.23F
$$

NOTE: "FAIR" INDICATES FEW OR NO CLOUDS BELOW 12,000 FEET WITH NO
SIGNIFICANT WEATHER AND/OR OBSTRUCTIONS TO VISIBILITY. WIND
SPEEDS ARE IN MILES-PER-HOUR.



USA.gov is the U.S. government's official web portal to all federal, state and local government web resources and services.